CW2969 Weather Reports


Display with metric or nautical units.
time (UTC)temp
F
wind
direction
speed
MPH
gust
MPH
rain 1hr
in
rain 24hr
in
rain mn
in
humidity
%
barometer
mb
20220813121025 76 192 0.0 0.0 0.00 0.00 0.00 85 1015.2
20220813120025 76 192 0.0 0.0 0.00 0.00 0.00 84 1015.1
20220813110025 76 192 0.0 0.0 0.00 0.00 0.00 84 1014.9
20220813105024 76 192 0.0 0.0 0.00 0.00 0.00 84 1015.1
20220813104025 76 192 0.0 0.0 0.00 0.00 0.00 84 1015.0
20220813092023 77 192 0.0 0.0 0.00 0.00 0.00 81 1014.7
20220813085023 78 192 0.0 0.0 0.00 0.00 0.00 80 1014.7
20220813081022 79 192 0.0 0.0 0.00 0.00 0.00 78 1014.5
20220813080022 80 192 0.0 0.0 0.00 0.00 0.00 77 1014.5
20220813073022 81 192 0.0 0.0 0.00 0.00 0.00 75 1014.6
20220813071022 82 194 0.0 1.0 0.00 0.00 0.00 73 1014.6
20220813065022 82 165 1.0 2.0 0.00 0.00 0.00 73 1014.7
20220813064022 83 131 1.0 3.0 0.00 0.00 0.00 72 1014.8
20220813063022 83 147 2.0 2.0 0.00 0.00 0.00 72 1014.8
20220813061021 82 155 0.0 4.0 0.00 0.00 0.00 73 1014.9
20220813053023 82 196 0.0 0.0 0.00 0.00 0.00 72 1014.8
20220813052021 82 154 0.0 0.0 0.00 0.00 0.00 71 1014.7
20220813051021 83 154 1.0 1.0 0.00 0.00 0.00 71 1014.8
20220813050021 83 172 1.0 2.0 0.00 0.00 0.00 71 1014.8
20220813045021 83 157 0.0 1.0 0.00 0.00 0.00 71 1014.8
20220813044021 83 231 0.0 1.0 0.00 0.00 0.00 71 1014.7
20220813041023 83 200 1.0 1.0 0.00 0.00 0.00 70 1014.8
20220813040020 84 206 1.0 1.0 0.00 0.00 0.00 69 1014.7
20220813034020 84 169 1.0 2.0 0.00 0.00 0.00 68 1014.5
20220813033019 85 206 0.0 0.0 0.00 0.00 0.00 67 1014.5
20220813031019 85 209 2.0 3.0 0.00 0.00 0.00 65 1014.3
20220813030019 86 199 1.0 2.0 0.00 0.00 0.00 65 1014.3
20220813024019 86 137 3.0 3.0 0.00 0.00 0.00 64 1013.9
20220813022019 87 176 1.0 4.0 0.00 0.00 0.00 63 1013.6
20220813015018 89 106 2.0 14.0 0.00 0.00 0.00 57 1013.3
20220813012018 91 134 7.0 7.0 0.00 0.00 0.00 54 1012.6
20220813004018 94 111 3.0 4.0 0.00 0.00 0.00 47 1011.7
20220813003018 95 113 0.0 3.0 0.00 0.00 0.00 46 1011.7
20220813002018 95 120 1.0 7.0 0.00 0.00 0.00 45 1011.7
20220813000018 96 150 2.0 3.0 0.00 0.00 0.00 46 1011.5
20220812235017 96 84 1.0 8.0 0.00 0.00 0.00 45 1011.5
20220812233017 98 76 2.0 10.0 0.00 0.00 0.00 38 1011.3
20220812232017 99 111 4.0 9.0 0.00 0.00 0.00 38 1011.3
20220812225017 99 98 1.0 3.0 0.00 0.00 0.00 37 1011.7
20220812221017 99 71 3.0 9.0 0.00 0.00 0.00 37 1012.1
20220812220016 99 105 4.0 8.0 0.00 0.00 0.00 38 1012.0
20220812214016 99 285 2.0 4.0 0.00 0.00 0.00 38 1012.0
20220812211016 97 132 8.0 8.0 0.00 0.00 0.00 41 1012.2
20220812204016 97 146 5.0 9.0 0.00 0.00 0.00 42 1012.6
20220812194015 98 101 7.0 7.0 0.00 0.00 0.00 41 1013.2
20220812193015 96 145 1.0 7.0 0.00 0.00 0.00 43 1013.4
20220812191015 95 103 4.0 4.0 0.00 0.00 0.00 44 1013.7
20220812190015 95 105 3.0 6.0 0.00 0.00 0.00 45 1013.8
20220812184014 96 146 4.0 6.0 0.00 0.00 0.00 43 1014.1
20220812181014 97 217 3.0 4.0 0.00 0.00 0.00 42 1014.5
20220812180014 96 117 2.0 3.0 0.00 0.00 0.00 45 1014.5
20220812175014 95 88 1.0 2.0 0.00 0.00 0.00 47 1014.5
20220812174013 96 68 2.0 3.0 0.00 0.00 0.00 45 1014.7
20220812170013 95 163 2.0 2.0 0.00 0.00 0.00 48 1015.1
20220812152012 89 15 1.0 2.0 0.00 0.00 0.00 62 1015.8
20220812151012 88 86 2.0 2.0 0.00 0.00 0.00 63 1015.8
20220812150012 88 172 1.0 2.0 0.00 0.00 0.00 64 1015.9
20220812142012 85 131 0.0 1.0 0.00 0.00 0.00 69 1015.7
20220812134012 83 98 3.0 3.0 0.00 0.00 0.00 75 1015.4
20220812133011 82 141 0.0 0.0 0.00 0.00 0.00 77 1015.4
20220812132012 80 141 0.0 0.0 0.00 0.00 0.00 81 1015.4
20220812131011 79 141 0.0 0.0 0.00 0.00 0.00 84 1015.5
20220812130011 77 141 0.0 0.0 0.00 0.00 0.00 85 1015.4